ES2JT Weather Reports


Display with metric or nautical units.
time (UTC)temp
F
wind
direction
speed
MPH
gust
MPH
rain 1hr
in
rain 24hr
in
rain mn
in
humidity
%
barometer
mb
20260508105838 64 12 7.0 9.0 0.00 0.00 0.00 25 1021.1
20260508104938 65 38 7.0 9.0 0.00 0.00 0.00 26 1021.3
20260508104039 65 33 7.0 9.0 0.00 0.00 0.00 27 1021.0
20260508103137 63 23 7.0 9.0 0.00 0.00 0.00 26 1021.0
20260508102237 64 38 7.0 9.0 0.00 0.00 0.00 23 1021.2
20260508101338 62 13 8.0 10.0 0.00 0.00 0.00 30 1021.1
20260508100437 61 45 8.0 10.0 0.00 0.00 0.00 25 1021.1
20260508095753 62 46 8.0 10.0 0.00 0.00 0.00 26 1021.0
20260508094637 61 10 7.0 8.0 0.00 0.00 0.00 30 1021.3
20260508093737 62 42 7.0 9.0 0.00 0.00 0.00 29 1021.0
20260508092838 61 33 7.0 8.0 0.00 0.00 0.00 30 1021.2
20260508092147 61 20 7.0 10.0 0.00 0.00 0.00 33 1021.2
20260508091039 60 22 7.0 9.0 0.00 0.00 0.00 34 1021.0
20260508090138 60 353 6.0 8.0 0.00 0.00 0.00 36 1021.1
20260508085237 59 40 7.0 8.0 0.00 0.00 0.00 33 1021.2
20260508084338 59 51 7.0 9.0 0.00 0.00 0.00 35 1021.3
20260508083438 59 48 7.0 8.0 0.00 0.00 0.00 33 1021.4
20260508082539 58 42 7.0 9.0 0.00 0.00 0.00 36 1021.4
20260508081637 58 11 7.0 8.0 0.00 0.00 0.00 38 1021.2
20260508080737 56 355 8.0 9.0 0.00 0.00 0.00 41 1021.3
20260508080049 55 9 7.0 9.0 0.00 0.00 0.00 42 1020.9
20260508074937 56 354 7.0 8.0 0.00 0.00 0.00 43 1021.1
20260508074039 57 359 7.0 9.0 0.00 0.00 0.00 42 1020.8
20260508073137 56 4 8.0 9.0 0.00 0.00 0.00 43 1020.8
20260508072448 56 4 8.0 9.0 0.00 0.00 0.00 44 1020.7
20260508071338 56 346 7.0 10.0 0.00 0.00 0.00 44 1020.8
20260508070648 55 30 8.0 11.0 0.00 0.00 0.00 46 1020.4
20260508065538 54 5 8.0 10.0 0.00 0.00 0.00 44 1020.5
20260508064638 55 28 9.0 11.0 0.00 0.00 0.00 42 1020.5
20260508063950 56 9 8.0 10.0 0.00 0.00 0.00 44 1020.4
20260508062837 54 20 8.0 10.0 0.00 0.00 0.00 45 1020.5
20260508061938 54 10 8.0 11.0 0.00 0.00 0.00 46 1020.0
20260508061247 53 357 9.0 11.0 0.00 0.00 0.00 48 1020.2
20260508060137 53 342 8.0 11.0 0.00 0.00 0.00 46 1019.9
20260508055237 53 10 10.0 14.0 0.00 0.00 0.00 48 1019.8
20260508054337 53 18 9.0 13.0 0.00 0.00 0.00 46 1019.7
20260508053437 52 323 11.0 13.0 0.00 0.00 0.00 47 1019.8
20260508052539 52 342 9.0 14.0 0.00 0.00 0.00 50 1019.5
20260508051637 51 348 8.0 12.0 0.00 0.00 0.00 53 1019.6
20260508050737 50 325 8.0 12.0 0.00 0.00 0.00 53 1019.2
20260508050050 50 331 7.0 9.0 0.00 0.00 0.00 58 1019.2
20260508044938 47 345 8.0 12.0 0.00 0.00 0.00 63 1019.1
20260508044039 46 4 7.0 12.0 0.00 0.00 0.00 63 1019.0
20260508043138 46 349 7.0 10.0 0.00 0.00 0.00 63 1018.8
20260508042237 45 357 9.0 11.0 0.00 0.00 0.00 63 1018.7
20260508041337 45 11 8.0 11.0 0.00 0.00 0.00 63 1018.6
20260508040437 45 360 8.0 10.0 0.00 0.00 0.00 62 1018.7
20260508035752 45 339 8.0 10.0 0.00 0.00 0.00 62 1018.3
20260508034638 46 351 6.0 8.0 0.00 0.00 0.00 65 1018.2
20260508033738 45 355 8.0 10.0 0.00 0.00 0.00 65 1018.0
20260508032838 45 336 6.0 10.0 0.00 0.00 0.00 68 1017.9
20260508031937 44 355 5.0 8.0 0.00 0.00 0.00 70 1018.0
20260508031249 44 359 5.0 8.0 0.00 0.00 0.00 72 1018.0
20260508030351 43 340 4.0 5.0 0.00 0.00 0.00 74 1017.6
20260508025237 42 347 4.0 7.0 0.00 0.00 0.00 77 1017.5
20260508024551 40 345 4.0 7.0 0.00 0.00 0.00 77 1017.6
20260508023438 40 329 4.0 8.0 0.00 0.00 0.00 77 1017.4
20260508022539 39 346 5.0 8.0 0.00 0.00 0.00 77 1017.4
20260508021637 39 349 5.0 8.0 0.00 0.00 0.00 78 1017.0
20260508020737 39 358 4.0 8.0 0.00 0.00 0.00 78 1016.8
20260508020047 38 330 5.0 8.0 0.00 0.00 0.00 77 1016.7
20260508014937 38 329 4.0 5.0 0.00 0.00 0.00 77 1016.5
20260508014037 38 320 3.0 4.0 0.00 0.00 0.00 76 1016.4
20260508013138 39 314 4.0 7.0 0.00 0.00 0.00 76 1016.4
20260508012237 38 316 4.0 7.0 0.00 0.00 0.00 76 1016.2
20260508011549 38 335 3.0 4.0 0.00 0.00 0.00 75 1016.2
20260508010437 38 301 3.0 4.0 0.00 0.00 0.00 74 1016.2
20260508005538 38 351 3.0 4.0 0.00 0.00 0.00 73 1016.0
20260508004637 39 337 2.0 5.0 0.00 0.00 0.00 71 1015.7
20260508003738 40 343 3.0 6.0 0.00 0.00 0.00 71 1016.1
20260508002837 40 339 4.0 5.0 0.00 0.00 0.00 71 1015.7
20260508002148 41 333 4.0 5.0 0.00 0.00 0.00 70 1015.8
20260508001250 41 303 4.0 4.0 0.00 0.00 0.00 69 1015.6
20260508000137 41 320 5.0 8.0 0.00 0.00 0.00 67 1015.3
20260507235237 41 333 4.0 6.0 0.00 0.00 0.00 67 1015.4
20260507234337 41 338 4.0 6.0 0.00 0.00 0.00 66 1015.3
20260507233437 41 336 4.0 6.0 0.00 0.00 0.00 65 1014.9
20260507232539 41 351 4.0 6.0 0.00 0.00 0.00 64 1014.8
20260507231637 41 355 4.0 4.0 0.00 0.00 0.00 63 1014.9
20260507230738 42 351 4.0 8.0 0.00 0.00 0.00 63 1014.7
20260507225837 42 10 6.0 8.0 0.00 0.00 0.00 62 1014.4
20260507224937 42 345 6.0 8.0 0.00 0.00 0.00 63 1014.3
20260507224038 42 350 7.0 9.0 0.00 0.00 0.00 65 1014.2
20260507223137 41 357 8.0 11.0 0.00 0.00 0.00 70 1014.4
20260507222237 39 325 7.0 9.0 0.00 0.00 0.00 80 1014.1
20260507221338 36 330 6.0 9.0 0.00 0.00 0.00 79 1014.0
20260507220437 34 280 4.0 4.0 0.00 0.00 0.00 79 1013.8
20260507215539 34 184 2.0 2.0 0.00 0.00 0.00 78 1013.9
20260507214638 34 179 2.0 2.0 0.00 0.00 0.00 76 1013.8
20260507213950 35 166 2.0 2.0 0.00 0.00 0.00 76 1013.7
20260507212837 36 201 2.0 2.0 0.00 0.00 0.00 75 1013.5
20260507211937 36 246 2.0 4.0 0.00 0.00 0.00 74 1013.2
20260507211039 36 224 3.0 3.0 0.00 0.00 0.00 73 1013.1
20260507210137 36 209 2.0 3.0 0.00 0.00 0.00 72 1013.0
20260507205238 35 251 2.0 3.0 0.00 0.00 0.00 71 1012.9
20260507204337 35 209 2.0 2.0 0.00 0.00 0.00 71 1012.8
20260507203437 36 215 2.0 3.0 0.00 0.00 0.00 69 1012.4
20260507202749 36 209 2.0 2.0 0.00 0.00 0.00 68 1012.6
20260507201637 36 222 2.0 2.0 0.00 0.00 0.00 67 1012.4
20260507200738 36 225 2.0 2.0 0.00 0.00 0.00 66 1012.5
20260507195837 37 190 3.0 3.0 0.00 0.00 0.00 65 1012.4
20260507194937 37 211 3.0 3.0 0.00 0.00 0.00 65 1012.1
20260507183835 42 221 1.0 2.0 0.00 0.00 0.00 52 1012.0
20260507182726 44 280 1.0 2.0 0.00 0.00 0.00 49 1011.8
20260507181826 45 316 3.0 5.0 0.00 0.00 0.00 48 1011.6
20260507180925 46 307 3.0 4.0 0.00 0.00 0.00 46 1011.6
20260507180240 47 308 3.0 5.0 0.00 0.00 0.00 45 1011.5
20260507175337 48 310 5.0 8.0 0.00 0.00 0.00 45 1011.5
20260507174226 49 310 3.0 4.0 0.00 0.00 0.00 44 1011.4
20260507173325 51 319 4.0 4.0 0.00 0.00 0.00 38 1011.2
20260507172426 53 317 4.0 5.0 0.00 0.00 0.00 34 1011.2
20260507171525 53 320 3.0 5.0 0.00 0.00 0.00 32 1010.9
20260507170626 53 323 3.0 5.0 0.00 0.00 0.00 32 1011.2
20260507165727 53 323 4.0 4.0 0.00 0.00 0.00 32 1010.8
20260507164826 53 330 3.0 5.0 0.00 0.00 0.00 33 1010.7
20260507163925 53 341 3.0 4.0 0.00 0.00 0.00 32 1010.9
20260507163025 54 350 4.0 5.0 0.00 0.00 0.00 31 1010.7
20260507162335 55 332 4.0 6.0 0.00 0.00 0.00 31 1010.8
20260507161227 57 345 6.0 7.0 0.00 0.00 0.00 32 1010.5
20260507160326 55 344 5.0 8.0 0.00 0.00 0.00 33 1010.4
20260507155426 55 6 6.0 8.0 0.00 0.00 0.00 34 1010.5
20260507154526 55 6 6.0 9.0 0.00 0.00 0.00 35 1010.5
20260507153625 55 358 6.0 8.0 0.00 0.00 0.00 35 1010.5
20260507152726 55 360 7.0 9.0 0.00 0.00 0.00 36 1010.8
20260507152037 55 24 6.0 9.0 0.00 0.00 0.00 36 1010.5
20260507150926 55 22 6.0 8.0 0.00 0.00 0.00 31 1010.3
20260507150025 55 65 6.0 9.0 0.00 0.00 0.00 29 1010.5
20260507145339 56 53 6.0 10.0 0.00 0.00 0.00 32 1010.5
20260507144226 59 27 7.0 9.0 0.00 0.00 0.00 30 1010.5
20260507143325 60 41 7.0 10.0 0.00 0.00 0.00 31 1010.4
20260507142425 58 18 8.0 10.0 0.00 0.00 0.00 33 1010.7
20260507141526 60 6 8.0 10.0 0.00 0.00 0.00 31 1010.5
20260507140625 62 7 8.0 10.0 0.00 0.00 0.00 30 1010.5
20260507135727 62 14 8.0 9.0 0.00 0.00 0.00 31 1010.5
20260507134826 63 14 7.0 9.0 0.00 0.00 0.00 31 1010.6
20260507133925 62 10 8.0 10.0 0.00 0.00 0.00 34 1010.6
20260507133025 62 30 8.0 10.0 0.00 0.00 0.00 36 1010.4
20260507132125 61 32 9.0 11.0 0.00 0.00 0.00 35 1010.6
20260507131226 63 12 8.0 10.0 0.00 0.00 0.00 38 1010.4
20260507130325 63 17 8.0 10.0 0.00 0.00 0.00 39 1010.4
20260507125639 62 28 8.0 11.0 0.00 0.00 0.00 39 1010.5
20260507124526 62 11 10.0 13.0 0.00 0.00 0.00 39 1010.4
20260507123626 62 2 10.0 12.0 0.00 0.00 0.00 38 1010.5
20260507122727 62 33 10.0 13.0 0.00 0.00 0.00 40 1010.3
20260507121826 62 43 10.0 12.0 0.00 0.00 0.00 35 1010.2
20260507120925 62 349 8.0 11.0 0.00 0.00 0.00 39 1010.3
20260507120026 62 23 8.0 11.0 0.00 0.00 0.00 38 1010.3
20260507115125 61 6 11.0 14.0 0.00 0.00 0.00 36 1010.2
20260507114228 62 21 11.0 15.0 0.00 0.00 0.00 32 1010.3
20260507113325 62 346 11.0 13.0 0.00 0.00 0.00 32 1010.2
20260507112425 61 1 12.0 15.0 0.00 0.00 0.00 36 1010.3
20260507111735 61 21 11.0 15.0 0.00 0.00 0.00 34 1010.1
20260507110625 60 5 11.0 15.0 0.00 0.00 0.00 41 1010.3